Weather History for 12566 - June, 2013

Change the Weather History Date:

Wednesday, June 26, 2013

  Actual Average Record
Temperature  
Mean Temperature 55 °F -  
Max Temperature 58 °F 73 °F - ()
Min Temperature 52 °F 54 °F - ()
Degree Days  
Heating Degree Days 10    
Growing Degree Days 5 (Base 50)    
Moisture  
Dew Point 52 °F    
Average Humidity 90    
Maximum Humidity 100    
Minimum Humidity 78    
Precipitation  
Precipitation 0.00 in 0.11 in - ()
Sea Level Pressure  
Sea Level Pressure 30.09 in    
Wind  
Wind Speed 10 mph ()    
Max Wind Speed 16 mph    
Max Gust Speed -    
Visibility 5.9 miles    
Events Rain    
T = Trace of Precipitation, MM = Missing Value Source: Averaged Metar Reports

Daily Weather History Graph

Daily Weather History Graph

Search for Another Location

Airport or City:

Trip Planner

Search our weather history database for the weather conditions in past years. The results will help you decide how hot, cold, wet, or windy it might be!

Date:

Astronomy

Jun. 26, 2013 Rise Set
Actual Time 4:32 AM CEST 8:54 PM CEST
Civil Twilight 3:47 AM CEST 9:39 PM CEST
Nautical Twilight 2:42 AM CEST 10:44 PM CEST
Astronomical Twilight 1:16 AM CEST 12:11 AM CEST
Moon 10:39 PM CEST (6/26) 8:25 AM CEST (6/26)
Length of Visible Light 17h 51m
Length of Day
16h 21m
Waning Gibbous, 87% of the Moon is Illuminated
Jun 26
Waning Gibbous
Jun 30
Last Quarter
Jul 8
New
Jul 16
First Quarter
Jul 22
Full

Hourly Weather History & Observations

Time (CEST) Temp. Dew Point Humidity Pressure Visibility Wind Dir Wind Speed Gust Speed Precip Events Conditions
12:00 AM 53.6 °F 51.8 °F 94% 29.98 in 6.2 mi WSW 9.2 mph - N/A Rain Light Rain Showers
12:30 AM 53.6 °F 51.8 °F 94% 29.98 in 6.2 mi WSW 8.1 mph - N/A   Mostly Cloudy
1:00 AM 53.6 °F 51.8 °F 94% 30.01 in 6.2 mi SW 8.1 mph - N/A   Mostly Cloudy
1:30 AM 53.6 °F 51.8 °F 94% 29.98 in 6.2 mi SW 11.5 mph - N/A   Mostly Cloudy
2:00 AM 53 °F 52 °F 94% 30.01 in 12 mi SW 11.2 mph - - Rain Light Rain Showers
2:00 AM 53.6 °F 51.8 °F 94% 30.01 in 6.2 mi WSW 11.5 mph - N/A Rain Light Rain Showers
2:30 AM 53.6 °F 51.8 °F 94% 30.01 in 6.2 mi WSW 11.5 mph - N/A Rain Light Rain Showers
3:00 AM 51.8 °F 51.8 °F 100% 30.01 in 4.3 mi SW 8.1 mph - N/A Rain Light Rain
3:30 AM 51.8 °F 51.8 °F 100% 30.01 in 5.0 mi WSW 9.2 mph - N/A   Light Drizzle
4:00 AM 51.8 °F 51.8 °F 100% 30.01 in 5.0 mi WSW 9.2 mph - N/A   Light Drizzle
4:30 AM 51.8 °F 51.8 °F 100% 30.01 in 5.0 mi WSW 9.2 mph - N/A   Light Drizzle
5:00 AM 53 °F 52 °F 93% 30.03 in 4 mi SW 11.2 mph - - Rain Light Rain
5:00 AM 51.8 °F 51.8 °F 100% 30.01 in 4.3 mi SW 9.2 mph - N/A Rain Light Rain
5:30 AM 51.8 °F 51.8 °F 100% 30.01 in 3.1 mi WSW 11.5 mph - N/A   Mostly Cloudy
6:00 AM 51.8 °F 51.8 °F 100% 30.01 in 3.1 mi WSW 11.5 mph - N/A   Mostly Cloudy
6:30 AM 51.8 °F 51.8 °F 100% 30.01 in 3.1 mi WSW 11.5 mph - N/A   Mostly Cloudy
7:00 AM 51.8 °F 51.8 °F 100% 30.01 in 3.7 mi WSW 12.7 mph - N/A   Mostly Cloudy
7:30 AM 53.6 °F 51.8 °F 94% 30.01 in 3.1 mi WSW 13.8 mph - N/A   Mostly Cloudy
8:00 AM 53 °F 52 °F 94% 30.05 in 3 mi WSW 13.4 mph - -   Mist
8:00 AM 53.6 °F 51.8 °F 94% 30.04 in 3.1 mi WSW 12.7 mph - N/A   Mostly Cloudy
8:30 AM 53.6 °F 51.8 °F 94% 30.04 in 3.1 mi WSW 11.5 mph - N/A   Light Drizzle
9:00 AM 53.6 °F 51.8 °F 94% 30.04 in 3.1 mi WSW 13.8 mph - N/A   Light Drizzle
9:30 AM 53.6 °F 53.6 °F 100% 30.04 in 3.1 mi WSW 12.7 mph - N/A   Light Drizzle
10:00 AM 55.4 °F 51.8 °F 88% 30.06 in 6.2 mi WSW 12.7 mph - N/A   Mostly Cloudy
10:30 AM 55.4 °F 51.8 °F 88% 30.06 in 6.2 mi WSW 13.8 mph - N/A   Mostly Cloudy
11:00 AM 55 °F 52 °F 86% 30.09 in 31 mi SW 15.7 mph - -   Partly Cloudy
11:00 AM 55.4 °F 51.8 °F 88% 30.06 in 6.2 mi WSW 13.8 mph - N/A   Mostly Cloudy
11:30 AM 55.4 °F 51.8 °F 88% 30.09 in 6.2 mi WSW 12.7 mph - N/A   Mostly Cloudy
12:00 PM 57.2 °F 51.8 °F 82% 30.09 in 6.2 mi WSW 13.8 mph - N/A   Mostly Cloudy
12:30 PM 57.2 °F 51.8 °F 82% 30.09 in 6.2 mi WSW 13.8 mph - N/A   Mostly Cloudy
1:00 PM 57.2 °F 51.8 °F 82% 30.09 in 6.2 mi WSW 13.8 mph - N/A   Mostly Cloudy
1:30 PM 57.2 °F 51.8 °F 82% 30.09 in 6.2 mi WSW 11.5 mph - N/A   Mostly Cloudy
2:00 PM 56 °F 53 °F 85% 30.13 in 19 mi SW 13.4 mph - -   Partly Cloudy
2:00 PM 57.2 °F 51.8 °F 82% 30.12 in 6.2 mi WSW 13.8 mph - N/A   Mostly Cloudy
2:30 PM 57.2 °F 53.6 °F 88% 30.12 in 6.2 mi WSW 16.1 mph - N/A   Mostly Cloudy
3:00 PM 57.2 °F 53.6 °F 88% 30.12 in 6.2 mi WSW 13.8 mph - N/A   Mostly Cloudy
3:30 PM 55.4 °F 53.6 °F 94% 30.12 in 6.2 mi WSW 13.8 mph - N/A   Mostly Cloudy
4:00 PM 55.4 °F 53.6 °F 94% 30.12 in 6.2 mi WSW 11.5 mph - N/A   Mostly Cloudy
4:30 PM 57.2 °F 53.6 °F 88% 30.12 in 6.2 mi WSW 10.4 mph - N/A   Mostly Cloudy
5:00 PM 58 °F 53 °F 78% 30.16 in 25 mi West 8.9 mph - -   Overcast
5:00 PM 57.2 °F 53.6 °F 88% 30.15 in 6.2 mi West 9.2 mph - N/A   Mostly Cloudy
5:30 PM 55.4 °F 51.8 °F 88% 30.15 in 6.2 mi West 13.8 mph - N/A   Mostly Cloudy
6:00 PM 55.4 °F 51.8 °F 88% 30.15 in 6.2 mi West 11.5 mph - N/A   Mostly Cloudy
6:30 PM 55.4 °F 50.0 °F 82% 30.15 in 6.2 mi WNW 11.5 mph - N/A   Mostly Cloudy
7:00 PM 55.4 °F 51.8 °F 88% 30.18 in 6.2 mi West 9.2 mph - N/A   Mostly Cloudy
7:30 PM 55.4 °F 50.0 °F 82% 30.18 in 6.2 mi West 8.1 mph - N/A   Mostly Cloudy
8:00 PM 54 °F 50 °F 81% 30.21 in 25 mi West 11.2 mph - -   Overcast
8:00 PM 55.4 °F 50.0 °F 82% 30.18 in 6.2 mi West 11.5 mph - N/A   Mostly Cloudy
8:30 PM 53.6 °F 48.2 °F 82% 30.18 in 6.2 mi WNW 10.4 mph - N/A   Mostly Cloudy
9:00 PM 53.6 °F 48.2 °F 82% 30.21 in 6.2 mi West 6.9 mph - N/A   Mostly Cloudy
9:30 PM 53.6 °F 48.2 °F 82% 30.21 in 6.2 mi West 5.8 mph - N/A   Mostly Cloudy
10:00 PM 53.6 °F 50.0 °F 88% 30.21 in 6.2 mi West 6.9 mph - N/A   Mostly Cloudy
10:30 PM 53.6 °F 50.0 °F 88% 30.21 in 6.2 mi West 5.8 mph - N/A   Mostly Cloudy
11:00 PM 53 °F 49 °F 84% 30.25 in 12 mi WSW 6.7 mph - -   Mostly Cloudy
11:00 PM 53.6 °F 50.0 °F 88% 30.21 in 6.2 mi WSW 5.8 mph - N/A   Mostly Cloudy
11:30 PM 53.6 °F 50.0 °F 88% 30.24 in 6.2 mi SW 3.5 mph - N/A   Mostly Cloudy